timestamp,wind_dir_avg,wind_spd_avg,wind_spd_max_dir,wind_spd_gust,battery_voltage,lat,long
2022-11-13 00:04:00+00:00,29.0,8.63,30.0,9.16,12.17,47.59359,-54.27349
2022-11-13 00:14:00+00:00,26.0,9.12,25.0,9.91,12.17,47.59359,-54.27349
2022-11-13 00:24:00+00:00,27.0,8.33,26.0,9.46,12.17,47.59359,-54.27349
2022-11-13 00:34:00+00:00,25.0,9.13,22.0,10.1,12.17,47.59359,-54.27349
2022-11-13 00:44:00+00:00,15.0,9.13,17.0,10.26,12.17,47.59359,-54.27349
2022-11-13 00:54:00+00:00,27.0,9.79,36.0,11.3,12.17,47.59359,-54.27349
2022-11-13 01:04:00+00:00,26.0,9.27,27.0,10.63,12.17,47.59359,-54.27349
2022-11-13 01:14:00+00:00,28.0,8.73,27.0,9.54,12.17,47.59359,-54.27349
2022-11-13 01:24:00+00:00,21.0,8.84,32.0,10.23,12.17,47.59359,-54.27349
2022-11-13 01:34:00+00:00,31.0,9.54,38.0,11.86,12.17,47.59359,-54.27349
2022-11-13 01:44:00+00:00,36.0,10.35,41.0,11.78,12.17,47.59359,-54.27349
2022-11-13 01:54:00+00:00,39.0,9.51,41.0,11.04,12.17,47.59359,-54.27349
2022-11-13 02:04:00+00:00,34.0,10.58,37.0,11.86,12.17,47.59359,-54.27349
2022-11-13 02:14:00+00:00,34.0,11.26,36.0,12.63,12.17,47.59359,-54.27349
2022-11-13 02:24:00+00:00,24.0,9.48,37.0,12.28,12.17,47.59359,-54.27349
2022-11-13 02:34:00+00:00,30.0,10.54,38.0,12.27,12.17,47.59359,-54.27349
2022-11-13 02:44:00+00:00,43.0,11.52,46.0,13.29,12.17,47.59359,-54.27349
2022-11-13 02:54:00+00:00,36.0,11.42,37.0,12.42,12.17,47.59359,-54.27349
2022-11-13 03:04:00+00:00,40.0,10.92,50.0,12.97,12.17,47.59359,-54.27349
2022-11-13 03:14:00+00:00,49.0,12.41,57.0,15.52,12.17,47.59359,-54.27349
2022-11-13 03:24:00+00:00,36.0,11.74,35.0,13.42,12.17,47.59359,-54.27349
2022-11-13 03:34:00+00:00,42.0,13.33,44.0,16.28,12.17,47.59359,-54.27349
2022-11-13 03:44:00+00:00,32.0,13.02,30.0,14.26,12.17,47.59359,-54.27349
2022-11-13 03:54:00+00:00,39.0,11.58,35.0,13.21,12.17,47.59359,-54.27349
2022-11-13 04:04:00+00:00,37.0,12.79,36.0,14.28,12.17,47.59359,-54.27349
2022-11-13 04:14:00+00:00,36.0,12.82,44.0,15.13,12.17,47.59359,-54.27349
2022-11-13 04:24:00+00:00,30.0,12.12,35.0,14.35,12.17,47.59359,-54.27349
2022-11-13 04:34:00+00:00,33.0,14.07,36.0,15.73,12.17,47.59359,-54.27349
2022-11-13 04:44:00+00:00,31.0,13.09,29.0,15.14,12.17,47.59359,-54.27349
2022-11-13 04:54:00+00:00,33.0,13.69,32.0,15.89,12.17,47.59359,-54.27349
2022-11-13 05:04:00+00:00,29.0,14.14,28.0,16.31,12.17,47.59359,-54.27349
2022-11-13 05:14:00+00:00,27.0,15.02,30.0,17.61,12.17,47.59359,-54.27349
2022-11-13 05:24:00+00:00,26.0,15.06,24.0,17.15,12.17,47.59359,-54.27349
2022-11-13 05:34:00+00:00,29.0,16.14,32.0,19.04,12.17,47.59359,-54.27349
2022-11-13 05:44:00+00:00,33.0,17.52,36.0,19.78,12.17,47.59359,-54.27349
2022-11-13 05:54:00+00:00,34.0,17.22,24.0,22.78,12.17,47.59359,-54.27349
2022-11-13 06:04:00+00:00,38.0,17.2,44.0,20.46,12.17,47.59359,-54.27349
2022-11-13 06:14:00+00:00,38.0,16.44,44.0,20.97,12.17,47.59359,-54.27349
2022-11-13 06:24:00+00:00,40.0,15.57,45.0,18.71,12.17,47.59359,-54.27349
2022-11-13 06:34:00+00:00,37.0,14.74,33.0,17.69,12.17,47.59359,-54.27349
2022-11-13 06:44:00+00:00,39.0,17.4,38.0,20.38,12.17,47.59359,-54.27349
2022-11-13 06:54:00+00:00,43.0,17.52,43.0,20.04,12.17,47.59359,-54.27349
2022-11-13 07:04:00+00:00,48.0,17.98,47.0,21.61,12.17,47.59359,-54.27349
2022-11-13 07:14:00+00:00,44.0,19.46,46.0,22.18,12.17,47.59359,-54.27349
2022-11-13 07:24:00+00:00,39.0,15.96,44.0,20.55,12.17,47.59359,-54.27349
2022-11-13 07:34:00+00:00,43.0,18.37,39.0,22.69,12.17,47.59359,-54.27349
2022-11-13 07:44:00+00:00,46.0,16.69,47.0,21.64,12.17,47.59359,-54.27349
2022-11-13 07:54:00+00:00,45.0,18.7,48.0,22.35,12.17,47.59359,-54.27349
2022-11-13 08:04:00+00:00,49.0,18.52,48.0,21.8,12.17,47.59359,-54.27349
2022-11-13 08:14:01+00:00,49.0,16.95,51.0,20.36,12.17,47.59359,-54.27349
2022-11-13 08:24:01+00:00,45.0,18.38,44.0,22.88,12.17,47.59359,-54.27349
2022-11-13 08:34:01+00:00,47.0,15.68,48.0,20.71,12.17,47.59359,-54.27349
2022-11-13 08:44:01+00:00,42.0,15.9,47.0,20.13,12.17,47.59359,-54.27349
2022-11-13 08:54:01+00:00,42.0,14.18,41.0,17.18,12.17,47.59359,-54.27349
2022-11-13 09:04:01+00:00,47.0,17.43,52.0,21.38,12.17,47.59359,-54.27349
2022-11-13 09:14:00+00:00,50.0,19.27,50.0,22.93,12.17,47.59359,-54.27349
2022-11-13 09:24:00+00:00,45.0,19.03,50.0,22.83,12.17,47.59359,-54.27349
2022-11-13 09:34:00+00:00,46.0,16.39,52.0,21.2,12.17,47.59359,-54.27349
2022-11-13 09:44:00+00:00,41.0,15.28,41.0,19.5,12.17,47.59359,-54.27349
2022-11-13 09:54:00+00:00,43.0,16.4,50.0,21.14,12.17,47.59359,-54.27349
2022-11-13 10:04:00+00:00,44.0,13.57,41.0,15.67,12.17,47.59359,-54.27349
2022-11-13 10:14:01+00:00,46.0,14.93,56.0,19.6,12.17,47.59359,-54.27349
2022-11-13 10:24:01+00:00,37.0,15.49,36.0,18.62,12.17,47.59359,-54.27349
2022-11-13 10:34:01+00:00,42.0,15.63,45.0,18.57,12.17,47.59359,-54.27349
2022-11-13 10:44:01+00:00,39.0,15.24,35.0,17.74,12.17,47.59359,-54.27349
2022-11-13 10:54:01+00:00,45.0,12.97,45.0,14.95,12.17,47.59359,-54.27349
2022-11-13 11:04:01+00:00,44.0,14.56,49.0,16.49,12.17,47.59359,-54.27349
2022-11-13 11:14:00+00:00,45.0,14.99,51.0,17.46,12.17,47.59359,-54.27349
2022-11-13 11:24:00+00:00,47.0,14.94,50.0,17.48,12.17,47.59359,-54.27349
2022-11-13 11:34:00+00:00,42.0,13.51,48.0,14.61,12.17,47.59359,-54.27349
2022-11-13 11:44:00+00:00,45.0,12.42,48.0,13.88,12.17,47.59359,-54.27349
2022-11-13 11:54:00+00:00,41.0,11.92,37.0,13.58,12.17,47.59359,-54.27349
2022-11-13 12:04:00+00:00,45.0,13.38,47.0,15.43,12.17,47.59359,-54.27349
2022-11-13 12:14:00+00:00,45.0,13.46,50.0,15.45,13.37,47.59359,-54.27349
2022-11-13 12:24:00+00:00,45.0,14.3,46.0,16.66,13.37,47.59359,-54.27349
2022-11-13 12:34:00+00:00,38.0,12.57,36.0,14.76,13.37,47.59359,-54.27349
2022-11-13 12:44:00+00:00,49.0,10.89,55.0,13.37,13.37,47.59359,-54.27349
2022-11-13 12:54:00+00:00,43.0,11.87,41.0,13.57,13.37,47.59359,-54.27349
2022-11-13 13:04:00+00:00,48.0,10.22,50.0,11.68,13.37,47.59359,-54.27349
2022-11-13 13:14:00+00:00,49.0,11.13,48.0,12.45,13.37,47.59359,-54.27349
2022-11-13 13:24:00+00:00,54.0,9.94,50.0,11.26,13.37,47.59359,-54.27349
2022-11-13 13:34:00+00:00,44.0,9.72,44.0,11.95,13.37,47.59359,-54.27349
2022-11-13 13:44:00+00:00,47.0,8.77,37.0,10.51,13.37,47.59359,-54.27349
2022-11-13 13:54:00+00:00,45.0,9.31,40.0,10.63,13.37,47.59359,-54.27349
2022-11-13 14:04:00+00:00,53.0,8.74,58.0,10.82,13.37,47.59359,-54.27349
2022-11-13 14:14:00+00:00,51.0,8.3,52.0,9.93,13.37,47.59359,-54.27349
2022-11-13 14:24:00+00:00,44.0,9.61,44.0,11.03,13.37,47.59359,-54.27349
2022-11-13 14:34:00+00:00,48.0,9.14,45.0,10.52,13.37,47.59359,-54.27349
2022-11-13 14:44:00+00:00,41.0,7.97,42.0,8.66,13.37,47.59359,-54.27349
2022-11-13 14:54:00+00:00,33.0,8.02,33.0,9.89,13.37,47.59359,-54.27349
2022-11-13 15:04:00+00:00,43.0,8.44,51.0,9.73,13.37,47.59359,-54.27349
2022-11-13 15:14:01+00:00,52.0,8.58,49.0,9.89,13.6,47.59359,-54.27349
2022-11-13 15:24:01+00:00,50.0,7.94,45.0,8.64,13.6,47.59359,-54.27349
2022-11-13 15:34:01+00:00,48.0,8.82,49.0,10.29,13.6,47.59359,-54.27349
2022-11-13 15:44:01+00:00,38.0,9.38,36.0,10.2,13.6,47.59359,-54.27349
2022-11-13 15:54:01+00:00,47.0,8.2,39.0,9.78,13.6,47.59359,-54.27349
2022-11-13 16:04:01+00:00,38.0,7.41,39.0,8.24,13.6,47.59359,-54.27349
2022-11-13 16:14:00+00:00,24.0,7.67,27.0,8.58,13.84,47.59359,-54.27349
2022-11-13 16:24:00+00:00,32.0,7.51,43.0,8.38,13.84,47.59359,-54.27349
2022-11-13 16:34:00+00:00,28.0,6.78,30.0,7.88,13.84,47.59359,-54.27349
2022-11-13 16:44:00+00:00,59.0,6.5,55.0,7.28,13.84,47.59359,-54.27349
2022-11-13 16:54:00+00:00,55.0,6.01,59.0,6.87,13.84,47.59359,-54.27349
2022-11-13 17:04:00+00:00,48.0,5.21,42.0,7.32,13.84,47.59359,-54.27349
2022-11-13 17:14:01+00:00,63.0,5.71,64.0,6.84,13.68,47.59359,-54.27349
2022-11-13 17:24:01+00:00,51.0,5.69,61.0,7.37,13.68,47.59359,-54.27349
2022-11-13 17:34:01+00:00,58.0,6.5,60.0,7.68,13.68,47.59359,-54.27349
2022-11-13 17:44:01+00:00,62.0,4.57,68.0,5.77,13.68,47.59359,-54.27349
2022-11-13 17:54:01+00:00,56.0,5.85,54.0,7.06,13.68,47.59359,-54.27349
2022-11-13 18:04:01+00:00,50.0,5.6,50.0,6.29,13.68,47.59359,-54.27349
2022-11-13 18:14:01+00:00,58.0,4.69,55.0,5.86,13.92,47.59359,-54.27349
2022-11-13 18:24:01+00:00,37.0,5.92,42.0,7.19,13.92,47.59359,-54.27349
2022-11-13 18:34:01+00:00,38.0,5.75,36.0,6.69,13.92,47.59359,-54.27349
2022-11-13 18:44:01+00:00,43.0,5.44,31.0,7.26,13.92,47.59359,-54.27349
2022-11-13 18:54:01+00:00,47.0,7.04,49.0,7.72,13.92,47.59359,-54.27349
2022-11-13 19:04:01+00:00,47.0,6.34,52.0,6.95,13.92,47.59359,-54.27349
2022-11-13 19:14:01+00:00,37.0,7.42,37.0,8.56,13.44,47.59359,-54.27349
2022-11-13 19:24:01+00:00,42.0,6.57,38.0,7.48,13.44,47.59359,-54.27349
2022-11-13 19:34:01+00:00,47.0,4.86,48.0,5.94,13.44,47.59359,-54.27349
2022-11-13 19:44:01+00:00,34.0,5.41,38.0,6.32,13.44,47.59359,-54.27349
2022-11-13 19:54:01+00:00,38.0,5.24,37.0,6.32,13.44,47.59359,-54.27349
2022-11-13 20:04:01+00:00,62.0,6.33,56.0,7.38,13.44,47.59359,-54.27349
2022-11-13 20:14:01+00:00,61.0,5.81,62.0,6.7,12.73,47.59359,-54.27349
2022-11-13 20:24:01+00:00,62.0,5.9,63.0,7.44,12.73,47.59359,-54.27349
2022-11-13 20:34:01+00:00,72.0,5.54,68.0,6.83,12.73,47.59359,-54.27349
2022-11-13 20:44:01+00:00,67.0,5.03,71.0,5.71,12.73,47.59359,-54.27349
2022-11-13 20:54:01+00:00,59.0,4.94,48.0,6.12,12.73,47.59359,-54.27349
2022-11-13 21:04:01+00:00,48.0,5.18,39.0,6.14,12.73,47.59359,-54.27349
2022-11-13 21:14:01+00:00,43.0,4.63,37.0,6.39,12.57,47.59359,-54.27349
2022-11-13 21:24:01+00:00,45.0,6.15,55.0,7.49,12.57,47.59359,-54.27349
2022-11-13 21:34:01+00:00,45.0,6.0,57.0,7.25,12.57,47.59359,-54.27349
2022-11-13 21:44:01+00:00,51.0,5.06,53.0,6.54,12.57,47.59359,-54.27349
2022-11-13 21:54:01+00:00,56.0,7.16,49.0,8.48,12.57,47.59359,-54.27349
2022-11-13 22:04:01+00:00,44.0,6.27,39.0,7.17,12.57,47.59359,-54.27349
2022-11-13 22:14:00+00:00,43.0,6.04,43.0,7.11,12.49,47.59359,-54.27349
2022-11-13 22:24:00+00:00,58.0,5.69,48.0,6.66,12.49,47.59359,-54.27349
2022-11-13 22:34:00+00:00,57.0,6.11,63.0,7.38,12.49,47.59359,-54.27349
2022-11-13 22:44:00+00:00,63.0,5.5,68.0,6.44,12.49,47.59359,-54.27349
2022-11-13 22:54:00+00:00,71.0,6.46,72.0,7.56,12.49,47.59359,-54.27349
2022-11-13 23:04:00+00:00,68.0,6.38,70.0,8.25,12.49,47.59359,-54.27349
2022-11-13 23:14:00+00:00,62.0,5.28,52.0,7.01,12.49,47.59359,-54.27349
2022-11-13 23:24:00+00:00,44.0,5.96,47.0,6.58,12.49,47.59359,-54.27349
2022-11-13 23:34:00+00:00,46.0,5.51,44.0,6.4,12.49,47.59359,-54.27349
2022-11-13 23:44:00+00:00,64.0,4.67,56.0,6.01,12.49,47.59359,-54.27349
2022-11-13 23:54:00+00:00,65.0,4.72,60.0,5.69,12.49,47.59359,-54.27349
